Temperature
21 21 21 21 19 17 19 20 20 20 20 20 20 19 18 18 17 17 17 17 17 17 17 17 17 17 17 17 17 17 17 17 17 17 17 17 17 17 17 17 17 17 17 17 17 17 17 18 18
21 21 21 21 17 18 19 20 20 20 20 20 20 19 18 18 17 17 17 17 17 17 17 17 17 17 17 17 16 16 16 16 16 17 17 17 17 17 17 17 17 17 17 17 17 17 17 17 17
21 21 21 18 18 18 19 20 20 21 21 21 19 19 18 18 17 17 17 17 17 17 17 17 17 17 17 16 16 16 16 16 16 17 17 17 17 17 17 17 17 17 17 17 17 17 17 17 17
22 21 21 18 19 19 20 20 20 21 21 20 19 18 18 18 18 17 17 17 17 17 17 17 17 17 17 17 16 16 16 16 16 16 17 17 16 16 17 17 17 17 17 17 17 17 17 17 17
22 21 18 18 19 20 20 21 21 20 20 19 19 17 17 18 18 18 17 17 17 17 17 17 17 17 17 17 16 16 16 16 16 16 16 16 16 16 16 16 17 17 17 17 17 17 17 17 17
22 20 18 18 20 20 21 21 21 20 19 19 18 17 17 18 18 18 18 17 17 17 17 17 17 17 17 17 17 16 16 16 16 16 16 16 16 16 16 16 16 16 16 17 17 17 17 17 17
21 18 18 19 19 20 21 22 21 20 20 20 19 18 17 18 18 18 18 18 17 17 17 17 17 17 17 16 16 16 16 16 16 16 16 16 16 16 16 16 16 16 16 16 16 16 16 16 16
23 18 19 19 19 20 22 22 21 21 20 20 20 18 18 18 18 18 18 18 17 17 17 17 17 17 17 16 16 16 16 16 16 16 16 16 16 16 16 16 16 16 16 16 16 16 16 16 16
23 18 19 20 20 20 21 21 21 21 20 20 20 19 19 18 18 18 18 18 17 17 17 17 17 17 17 16 16 16 16 16 16 16 16 16 16 16 16 16 16 16 16 16 16 16 16 16 16
22 18 20 21 20 20 21 21 21 20 19 19 19 19 19 18 18 18 18 18 18 18 17 17 17 17 17 17 16 16 16 16 16 16 16 16 16 16 16 16 16 16 16 16 16 16 16 16 16
22 20 21 22 22 22 21 21 21 20 18 19 19 19 18 18 18 18 18 18 18 18 17 17 17 17 17 17 17 16 16 16 16 16 16 16 16 16 16 16 16 16 16 16 16 15 15 16 16
22 22 23 22 23 22 22 21 21 20 20 20 20 19 19 19 18 18 18 18 18 18 18 17 17 17 17 17 17 16 16 16 16 16 16 16 16 16 16 16 16 16 15 16 16 15 15 15 15
22 22 23 23 23 22 22 21 21 20 21 20 20 19 19 19 19 18 18 18 18 18 18 18 17 17 17 17 17 17 17 16 16 16 16 16 16 16 16 16 16 16 15 15 15 15 15 15 15
23 23 22 22 22 22 21 21 21 20 20 20 19 19 19 19 19 19 18 18 18 18 18 17 17 17 17 17 17 17 16 16 16 16 16 16 16 16 16 16 16 16 16 16 15 15 15 15 15
23 22 21 22 22 22 21 20 20 21 20 20 19 19 19 19 19 19 19 18 18 18 18 18 17 17 17 17 17 16 16 16 16 16 16 16 16 16 16 16 16 16 16 15 15 15 15 15 15
22 21 20 21 21 22 20 19 19 20 20 19 19 19 19 19 19 19 19 18 18 18 18 18 17 17 17 17 17 16 16 16 16 16 16 16 16 16 16 16 16 16 15 15 15 15 15 15 15
20 20 20 21 21 21 20 19 20 20 20 19 19 19 19 19 19 19 18 18 18 18 18 17 17 17 17 17 16 16 16 16 16 16 16 16 16 16 16 16 16 16 15 15 15 15 15 15 15
20 20 20 20 21 21 20 19 19 20 20 19 19 19 19 19 19 19 19 18 18 18 18 17 17 17 17 17 16 16 16 16 16 16 16 16 16 16 16 16 16 15 15 15 15 15 15 15 15
21 21 20 21 21 20 19 19 19 19 19 19 19 19 19 19 19 19 18 18 18 18 18 17 17 17 17 17 16 16 16 16 16 16 16 16 16 16 16 16 16 15 15 15 15 15 15 15 15
21 21 20 21 22 21 19 19 19 19 19 19 19 19 19 19 18 18 18 18 18 18 18 17 17 17 17 17 16 16 16 16 16 16 16 16 16 16 16 16 16 15 15 15 15 15 15 15 14
21 21 21 21 21 21 19 19 19 19 19 19 19 19 19 19 19 18 18 18 18 18 18 17 17 17 17 16 16 16 16 16 16 16 16 16 15 16 16 15 15 15 15 15 15 15 15 15 14
21 22 22 21 19 18 19 17 18 18 18 18 18 19 19 19 19 18 18 18 18 18 18 17 17 17 17 16 16 16 16 16 16 16 15 15 15 15 15 15 15 15 15 15 15 15 15 15 15
21 22 22 21 20 19 19 18 17 17 17 17 18 18 18 18 18 18 18 18 18 18 17 17 17 17 16 16 16 16 16 16 16 15 15 15 15 15 15 15 15 15 15 15 15 15 15 15 15
22 21 20 18 18 18 18 18 17 16 17 18 18 18 18 18 18 18 18 18 18 17 17 17 17 17 16 16 16 16 16 16 16 15 15 15 15 15 15 15 15 15 15 15 15 15 15 15 15
21 18 17 18 17 17 18 18 17 18 18 18 18 18 18 18 18 18 18 18 17 17 17 17 17 16 16 16 16 16 16 16 16 16 16 16 15 15 15 15 15 15 15 15 15 15 15 15 15
20 19 18 18 17 17 18 18 18 19 19 19 19 19 18 18 18 18 18 17 17 17 17 17 17 16 16 16 16 16 16 16 16 16 16 16 16 16 15 15 15 15 15 15 15 15 15 15 15
21 19 18 17 18 17 17 18 19 19 18 18 18 18 18 18 18 18 18 17 17 17 17 17 16 16 16 16 16 16 16 16 16 16 16 16 16 15 15 15 15 15 15 15 15 15 15 15 15
21 20 17 17 17 17 17 17 17 18 18 18 18 18 18 18 18 18 18 17 17 17 17 16 16 16 16 16 16 16 16 16 15 15 16 16 16 16 15 15 15 15 15 15 15 15 15 15 15
21 20 18 16 16 16 17 17 19 18 18 18 18 18 18 18 18 18 18 17 17 17 17 16 16 16 16 16 16 16 16 15 15 15 15 16 15 15 15 15 15 15 15 15 15 15 15 15 14
20 20 18 17 17 16 16 17 19 18 18 19 18 19 19 18 18 18 18 17 17 17 17 16 16 16 16 16 16 15 15 15 15 15 15 15 15 15 15 15 15 15 15 15 15 15 15 15 14
Wind_Speed
4 3 2 3 5 6 4 2 2 4 5 5 9 9 8 6 5 5 2 5 8 5 5 6 7 8 9 9 9 10 10 10 10 10 11 11 11 11 12 12 12 12 12 12 11 11 10 10 10
2 1 3 5 5 5 3 2 5 5 6 7 8 8 7 6 4 5 3 7 8 7 6 7 8 9 9 10 10 10 10 11 11 11 11 11 11 11 11 12 12 12 12 11 10 10 10 10 10
2 1 4 5 4 4 4 3 6 7 7 5 5 6 5 4 4 4 6 9 8 6 7 8 9 9 9 10 10 9 10 10 10 10 10 10 10 10 11 11 12 11 11 11 10 10 10 10 10
2 4 5 6 7 3 5 4 6 7 6 7 6 6 4 3 3 6 8 9 8 6 7 8 9 10 10 9 9 9 9 10 10 9 9 10 10 10 11 11 11 11 11 10 10 10 10 10 10
3 5 6 5 6 4 5 6 6 7 5 6 7 6 3 2 5 9 9 9 8 6 7 8 10 10 10 9 9 9 9 9 9 9 9 9 9 10 10 11 10 10 10 10 10 10 10 10 10
4 5 5 5 5 4 4 6 8 9 8 7 7 6 2 1 5 7 8 7 7 7 7 8 10 10 9 9 9 8 8 8 8 8 8 8 9 9 9 10 10 9 9 10 10 10 11 11 11
5 5 4 5 5 5 4 5 7 7 7 5 5 5 2 1 3 7 7 7 6 7 7 7 8 9 9 9 8 7 7 7 7 7 7 8 8 8 8 9 9 9 9 10 10 10 10 11 11
5 5 4 4 5 3 2 4 6 7 6 5 4 6 4 4 4 5 5 5 5 5 5 6 7 8 7 7 7 7 6 6 7 6 6 6 7 7 7 7 8 9 9 9 9 9 10 10 11
5 6 4 3 5 3 4 7 4 5 7 4 3 4 5 6 5 5 3 3 4 5 5 5 6 6 7 6 5 5 5 4 4 5 5 5 5 6 6 6 7 8 8 8 9 9 9 10 10
5 5 3 3 6 6 5 6 5 5 7 5 5 5 6 5 5 5 4 4 4 5 5 5 5 6 6 6 5 4 2 2 2 3 3 4 4 5 5 6 6 6 7 7 7 8 9 9 8
5 6 4 5 6 8 7 5 4 7 4 5 7 8 7 6 5 5 4 4 4 4 5 5 5 6 6 4 5 3 2 2 2 3 4 6 6 5 5 4 5 6 6 6 7 7 7 7 7
6 4 5 5 6 7 6 4 5 5 5 7 10 10 7 7 6 5 4 3 3 4 4 5 5 4 4 5 4 3 2 2 3 3 6 7 5 4 3 3 4 5 5 6 7 6 7 8 8
6 4 5 6 7 7 7 6 5 3 5 8 9 8 7 6 5 5 5 5 5 5 5 5 5 5 4 4 3 4 3 3 3 4 6 8 5 3 3 3 4 5 5 6 6 6 6 6 7
5 5 5 5 6 6 8 4 4 3 7 8 9 7 6 6 5 4 5 5 5 5 6 5 5 5 5 4 3 3 4 4 5 5 6 8 7 5 4 3 4 5 6 7 7 6 6 5 5
4 5 3 2 4 4 7 4 1 4 8 8 7 6 5 4 5 6 6 6 6 6 5 6 6 5 5 4 4 4 4 5 5 5 6 7 7 7 5 4 4 4 7 8 7 7 6 5 5
3 4 1 2 3 3 7 2 3 5 9 7 5 5 4 3 4 5 6 6 6 6 5 5 6 6 5 4 4 4 5 5 4 5 6 7 8 8 7 4 4 6 7 6 5 4 4 4 4
2 2 2 1 2 3 5 3 3 5 9 7 6 5 4 3 3 4 5 6 6 6 6 5 6 6 5 5 5 5 5 5 5 6 6 6 8 9 7 4 5 7 6 4 4 4 4 4 4
3 2 2 2 2 4 4 3 3 4 7 7 6 5 5 4 4 4 5 5 6 5 6 6 6 5 5 4 4 3 4 3 4 4 5 6 7 8 7 5 5 6 5 3 3 4 3 3 3
3 3 3 3 4 4 4 3 3 5 5 6 6 6 6 5 4 4 5 5 5 5 6 6 5 4 4 3 3 2 1 1 2 3 4 5 6 7 6 4 4 5 4 4 4 3 4 3 3
3 3 1 1 2 4 3 2 3 4 7 8 8 8 7 5 3 4 5 4 5 5 5 5 5 4 4 3 2 2 2 1 0 1 3 4 4 5 6 5 4 4 4 4 3 3 3 1 2
1 3 3 2 1 1 4 2 2 1 1 3 5 6 7 9 8 6 5 4 5 5 5 5 4 4 3 3 3 3 3 2 2 2 2 2 3 4 5 5 5 4 4 4 3 4 4 2 1
2 3 3 2 2 2 2 1 4 3 1 2 3 4 6 7 6 6 6 6 6 5 5 5 5 4 3 4 4 4 3 2 2 1 0 1 3 4 5 5 5 4 3 3 3 3 3 3 1
5 3 2 2 2 1 0 3 5 1 2 4 4 5 6 7 7 7 7 6 5 5 5 5 5 4 3 3 4 4 2 2 1 0 1 1 1 2 4 5 5 4 3 3 3 3 3 3 3
2 4 5 5 4 1 3 4 4 4 6 5 4 5 6 7 7 6 5 5 4 4 4 4 5 3 3 3 4 4 4 3 3 1 1 0 0 1 1 4 4 4 3 3 3 3 3 3 3
4 5 4 5 3 3 2 3 5 6 5 7 7 7 6 6 7 6 5 5 5 4 4 4 4 2 2 2 3 4 4 4 5 3 3 2 1 1 1 2 2 2 3 3 3 3 3 3 3
2 7 6 3 3 3 3 1 5 4 3 4 5 6 6 6 6 7 7 7 6 5 5 4 4 3 2 1 2 2 3 3 2 3 3 3 3 3 2 3 3 3 3 3 3 3 2 2 2
2 2 6 5 1 0 2 2 4 2 3 4 5 5 6 6 6 7 6 6 6 6 5 5 5 3 3 2 2 2 2 2 2 3 3 2 3 3 3 3 3 3 3 4 3 2 2 2 2
4 5 5 4 2 1 2 3 4 4 4 4 5 6 6 6 5 6 6 6 6 6 5 4 5 4 3 3 2 2 2 2 2 2 3 3 3 2 3 3 3 3 3 4 4 2 2 2 1
1 1 4 3 4 4 2 5 6 9 8 7 8 8 8 8 7 6 6 6 6 5 5 4 4 3 2 3 2 2 2 2 2 2 2 3 3 3 3 3 3 3 3 3 3 3 3 3 2
4 4 5 4 2 3 3 6 4 8 7 7 7 7 7 7 6 6 6 5 4 4 5 4 4 4 4 3 2 2 2 2 2 2 2 2 3 3 3 3 3 3 3 3 4 3 3 3 3
Wind_Direction
318 330 85 60 55 58 64 44 81 69 64 61 71 78 78 66 86 125 197 139 134 138 125 112 103 98 93 90 86 83 84 82 80 80 83 86 88 90 89 87 87 85 83 81 82 83 83 84 82
331 20 64 57 76 79 64 67 72 81 124 115 79 76 78 74 89 114 118 136 135 136 130 118 109 103 98 94 89 86 85 83 82 81 83 87 88 88 89 89 89 88 85 81 80 80 80 81 81
308 53 74 63 73 107 112 113 98 84 84 86 78 53 66 92 104 132 147 143 135 130 128 121 114 107 103 101 97 94 91 87 85 85 84 87 91 92 91 91 90 89 88 85 83 82 79 79 80
64 48 56 70 75 77 123 136 116 97 65 58 90 66 54 61 127 141 141 141 136 134 132 127 122 114 109 107 103 98 96 93 90 88 87 89 93 94 94 95 94 93 91 88 85 82 78 78 80
74 73 64 69 78 73 89 106 101 89 78 76 89 93 73 12 111 130 138 140 142 145 142 136 129 122 117 114 110 104 98 96 94 90 88 89 92 94 93 96 98 97 93 89 86 82 79 76 78
60 67 80 87 88 86 81 91 92 93 107 103 97 103 103 133 119 138 139 145 149 152 149 142 138 132 127 121 116 110 104 101 97 93 90 91 94 97 96 97 98 97 94 91 87 83 81 78 78
97 84 101 113 96 83 99 94 96 109 107 109 121 104 134 202 150 144 144 144 146 147 147 151 150 144 140 133 127 121 113 110 106 100 94 92 99 101 101 99 100 98 96 94 90 86 82 76 76
116 96 84 93 103 92 96 90 100 102 102 110 109 125 167 201 170 138 135 138 142 147 152 160 168 162 154 149 144 136 128 120 117 111 102 94 94 96 102 100 102 101 99 96 93 85 81 76 75
84 80 96 134 137 129 104 97 81 80 93 76 81 136 160 154 132 116 108 114 146 159 167 170 177 179 174 168 161 151 143 133 125 123 119 102 92 90 95 98 100 100 96 92 92 85 80 73 70
81 100 139 153 144 132 112 109 111 89 84 80 77 97 123 121 125 137 148 151 153 168 183 179 180 183 180 172 161 171 168 164 157 157 152 132 124 117 105 97 91 92 92 87 88 83 72 65 62
104 129 126 99 118 118 107 93 93 114 113 156 150 148 141 132 139 152 162 152 158 160 160 166 172 170 166 159 154 157 152 148 143 149 151 138 128 117 100 87 65 65 72 73 77 77 72 72 74
103 115 116 116 114 109 116 113 98 124 172 167 153 151 144 140 148 153 155 150 137 122 119 131 142 138 146 141 134 124 117 106 101 118 129 130 122 114 106 92 83 77 77 78 76 85 82 78 80
102 117 112 114 107 113 108 108 123 138 147 139 138 139 143 146 150 153 149 142 126 114 107 121 122 117 118 115 114 109 107 101 97 97 122 133 126 126 115 96 92 89 92 90 86 86 84 82 81
141 123 113 118 112 113 113 111 106 165 143 136 141 148 151 151 150 135 133 131 127 120 123 127 119 108 102 104 108 108 105 98 87 85 107 125 130 127 116 101 94 96 99 97 98 96 89 83 86
106 98 77 121 140 146 111 64 144 169 140 140 148 155 152 148 145 151 155 148 140 132 129 127 123 108 101 97 95 98 101 97 83 77 96 115 123 122 114 110 105 106 106 99 94 88 87 84 79
64 82 116 248 159 147 114 142 255 154 138 151 158 155 144 144 142 154 151 140 139 132 127 126 121 110 104 98 87 82 84 84 78 76 86 109 120 120 113 111 112 113 105 99 95 88 84 72 66
41 139 191 266 199 146 130 180 231 157 143 154 159 155 144 135 131 151 145 142 146 142 136 127 121 119 114 103 89 83 80 76 73 77 84 106 116 116 113 113 117 115 103 98 102 85 92 85 73
213 179 175 203 208 126 140 184 207 166 151 160 163 161 156 158 175 165 152 148 142 140 136 134 129 128 116 98 81 64 56 51 57 65 80 106 117 113 111 114 116 116 109 97 98 99 85 97 93
178 156 167 214 193 137 154 170 202 174 158 164 167 168 169 179 190 155 151 138 130 129 132 140 136 136 121 106 100 90 70 23 26 48 81 103 116 118 114 116 115 120 120 127 123 110 92 76 88
109 120 144 225 184 145 153 194 219 181 179 179 177 178 176 169 161 160 154 140 135 135 133 137 142 144 141 137 140 141 136 116 46 39 61 90 109 122 130 129 132 132 121 117 120 120 110 91 96
96 160 188 190 1 91 103 3 310 272 180 174 174 179 176 173 174 172 160 150 137 137 145 145 145 140 140 130 107 87 63 37 30 30 22 49 105 116 131 139 139 145 141 146 151 144 138 139 50
227 232 192 169 104 252 149 224 277 250 226 196 185 178 176 174 167 166 162 158 154 157 152 143 137 127 132 131 127 130 134 156 215 209 109 42 92 108 124 135 140 147 146 150 164 151 145 138 147
218 238 224 218 152 25 230 154 283 222 221 236 210 187 176 165 162 164 162 162 159 151 147 144 137 133 132 138 143 139 147 181 196 92 95 49 39 80 115 130 135 141 147 159 156 138 134 139 151
174 47 26 46 74 338 246 162 265 226 218 223 213 194 183 172 165 164 151 132 132 125 129 141 142 147 154 140 145 153 166 168 161 169 157 171 357 8 101 126 132 140 140 153 156 146 136 140 138
74 78 31 6 15 258 253 143 240 238 214 194 188 185 183 173 166 159 146 140 141 141 143 144 138 145 164 158 161 174 178 175 182 188 187 186 200 230 224 154 145 145 147 148 141 132 133 138 135
182 138 154 190 222 274 348 210 258 260 208 173 165 164 163 164 169 167 166 163 161 157 150 148 148 148 157 172 202 191 175 171 189 196 189 192 202 215 200 171 164 162 149 141 133 133 140 136 141
145 179 174 147 182 289 305 313 326 12 94 121 137 144 161 171 172 171 168 166 166 166 166 164 160 159 171 189 191 193 186 180 195 202 186 196 215 206 182 164 160 168 153 143 132 127 142 132 139
159 155 98 122 157 248 279 248 227 220 195 167 162 169 178 175 170 166 172 175 180 180 172 170 168 175 185 185 191 184 204 191 188 191 189 193 206 186 164 160 161 162 157 148 137 133 135 122 122
162 114 119 129 153 159 231 264 220 199 193 183 187 188 182 177 179 178 179 188 187 177 170 175 177 180 189 196 196 187 198 189 165 174 199 195 188 179 170 172 168 161 157 151 144 150 139 128 116
178 183 145 147 231 171 184 263 256 191 190 179 185 192 186 179 179 174 174 171 174 173 176 180 185 191 202 199 190 197 197 180 166 182 213 191 172 175 167 160 159 159 156 149 146 148 137 138 139
Height
1522 1521 1520 1521 1524 1535 1539 1534 1529 1529 1529 1530 1529 1530 1533 1537 1540 1547 1544 1542 1542 1541 1540 1540 1539 1538 1537 1536 1536 1535 1535 1534 1533 1533 1532 1532 1531 1531 1531 1530 1530 1531 1531 1531 1531 1531 1531 1532 1532
1522 1521 1522 1522 1532 1546 1543 1534 1532 1530 1531 1530 1531 1533 1535 1538 1540 1541 1542 1542 1543 1542 1541 1540 1539 1539 1538 1537 1536 1536 1535 1535 1534 1534 1533 1533 1532 1532 1532 1532 1532 1532 1532 1532 1532 1532 1533 1533 1533
1522 1522 1523 1527 1536 1544 1541 1534 1532 1531 1531 1530 1533 1535 1538 1540 1541 1542 1543 1543 1543 1543 1542 1541 1540 1540 1539 1538 1537 1537 1537 1536 1536 1535 1534 1534 1534 1533 1533 1533 1533 1533 1533 1533 1534 1534 1534 1534 1534
1522 1523 1525 1533 1539 1536 1534 1532 1531 1531 1532 1533 1534 1538 1541 1542 1542 1543 1543 1544 1544 1543 1543 1542 1542 1541 1540 1539 1539 1538 1538 1537 1537 1536 1536 1535 1535 1535 1535 1534 1534 1534 1534 1535 1535 1535 1535 1535 1535
1523 1524 1532 1539 1538 1535 1532 1531 1531 1532 1534 1536 1536 1540 1543 1544 1543 1543 1544 1545 1545 1544 1544 1543 1543 1542 1541 1541 1540 1540 1539 1539 1538 1538 1537 1537 1536 1536 1536 1536 1536 1536 1536 1536 1536 1536 1536 1536 1536
1524 1526 1540 1546 1540 1535 1533 1533 1533 1535 1537 1539 1539 1541 1544 1545 1544 1545 1545 1546 1546 1545 1545 1545 1544 1543 1543 1542 1542 1541 1541 1540 1539 1539 1538 1538 1538 1538 1537 1537 1537 1537 1537 1537 1538 1538 1538 1537 1537
1526 1532 1541 1542 1542 1538 1535 1534 1535 1536 1538 1540 1540 1543 1545 1546 1546 1546 1547 1547 1547 1546 1546 1546 1546 1545 1544 1544 1543 1543 1542 1542 1541 1541 1540 1540 1539 1539 1539 1539 1539 1539 1539 1539 1539 1539 1539 1539 1539
1525 1532 1540 1542 1542 1540 1536 1535 1537 1537 1539 1541 1541 1542 1545 1546 1547 1547 1547 1548 1548 1548 1548 1547 1547 1547 1546 1546 1545 1545 1544 1544 1543 1543 1542 1542 1541 1541 1541 1541 1540 1540 1540 1540 1541 1541 1541 1541 1541
1526 1536 1544 1541 1541 1539 1536 1537 1539 1539 1540 1541 1542 1543 1544 1546 1547 1548 1548 1548 1548 1549 1549 1548 1548 1548 1548 1547 1547 1547 1546 1545 1545 1544 1544 1543 1543 1543 1542 1542 1542 1542 1542 1542 1542 1542 1542 1542 1542
1528 1540 1538 1535 1535 1537 1537 1538 1539 1541 1541 1543 1543 1544 1545 1546 1547 1548 1548 1549 1549 1549 1549 1549 1549 1549 1549 1549 1548 1548 1547 1547 1547 1546 1546 1545 1545 1544 1544 1544 1544 1543 1543 1543 1543 1543 1543 1543 1543
1529 1535 1534 1534 1534 1536 1538 1539 1540 1541 1543 1543 1543 1544 1546 1547 1548 1548 1549 1549 1549 1549 1550 1550 1550 1550 1550 1550 1549 1549 1549 1548 1548 1548 1547 1547 1547 1546 1546 1546 1545 1545 1545 1545 1545 1545 1545 1545 1545
1531 1532 1533 1534 1535 1536 1538 1540 1541 1541 1543 1543 1543 1545 1546 1547 1548 1549 1549 1550 1550 1550 1550 1551 1551 1551 1551 1551 1550 1550 1550 1550 1549 1549 1549 1549 1548 1548 1548 1548 1547 1547 1547 1547 1547 1546 1546 1546 1546
1533 1534 1534 1535 1536 1537 1539 1540 1541 1542 1543 1544 1545 1546 1546 1547 1548 1549 1550 1550 1551 1551 1551 1551 1552 1552 1551 1551 1551 1551 1551 1551 1551 1550 1550 1550 1550 1550 1550 1549 1549 1549 1549 1549 1548 1548 1548 1548 1547
1533 1534 1535 1536 1537 1539 1540 1542 1542 1543 1544 1544 1545 1546 1547 1547 1549 1550 1550 1551 1551 1551 1552 1552 1553 1553 1553 1552 1552 1552 1553 1552 1552 1552 1552 1551 1551 1551 1551 1551 1550 1550 1550 1550 1550 1550 1549 1549 1549
1533 1536 1538 1538 1538 1540 1541 1545 1544 1543 1544 1545 1546 1547 1547 1548 1549 1549 1550 1551 1551 1552 1553 1553 1553 1553 1553 1553 1553 1553 1553 1553 1553 1553 1553 1553 1553 1552 1552 1552 1552 1552 1551 1551 1551 1551 1551 1550 1550
1536 1541 1547 1540 1538 1540 1544 1553 1544 1544 1545 1546 1546 1547 1548 1549 1549 1550 1551 1551 1552 1553 1553 1554 1554 1554 1554 1554 1554 1554 1554 1554 1554 1554 1554 1554 1554 1553 1553 1553 1553 1553 1553 1553 1552 1552 1552 1552 1551
1543 1550 1549 1543 1538 1539 1544 1549 1544 1544 1544 1545 1546 1547 1548 1549 1550 1550 1551 1551 1552 1553 1553 1554 1554 1554 1554 1555 1555 1555 1555 1555 1555 1555 1555 1555 1554 1554 1554 1554 1553 1553 1553 1553 1553 1553 1553 1553 1552
1549 1548 1547 1546 1540 1540 1544 1546 1543 1544 1544 1544 1546 1547 1548 1549 1550 1550 1551 1552 1552 1553 1554 1554 1554 1555 1555 1555 1555 1555 1555 1555 1555 1555 1555 1555 1555 1555 1554 1554 1554 1554 1554 1554 1554 1554 1554 1554 1554
1539 1543 1546 1544 1539 1542 1545 1546 1544 1543 1544 1544 1545 1546 1547 1548 1549 1550 1551 1551 1552 1553 1554 1554 1554 1555 1555 1555 1555 1555 1555 1555 1555 1555 1556 1555 1555 1555 1555 1555 1555 1555 1555 1555 1555 1555 1555 1555 1555
1538 1544 1545 1542 1538 1541 1546 1546 1543 1542 1542 1542 1543 1545 1546 1548 1549 1550 1550 1551 1552 1553 1553 1554 1554 1555 1555 1555 1555 1555 1555 1555 1556 1556 1556 1556 1555 1555 1555 1555 1555 1555 1555 1555 1555 1555 1555 1555 1555
1540 1543 1543 1544 1541 1541 1546 1551 1547 1543 1542 1542 1543 1543 1544 1546 1547 1548 1550 1551 1552 1552 1553 1553 1554 1555 1555 1555 1555 1555 1555 1555 1555 1555 1555 1555 1555 1555 1555 1555 1555 1555 1555 1555 1556 1556 1556 1556 1556
1544 1535 1536 1539 1548 1554 1550 1565 1552 1545 1544 1543 1543 1543 1543 1545 1546 1547 1549 1550 1551 1552 1552 1553 1554 1554 1555 1555 1555 1555 1555 1555 1555 1555 1555 1555 1555 1555 1555 1555 1556 1555 1556 1556 1556 1556 1556 1556 1556
1536 1532 1535 1538 1545 1553 1552 1561 1558 1547 1547 1543 1541 1541 1542 1543 1545 1546 1548 1549 1550 1552 1552 1553 1553 1554 1554 1555 1555 1555 1555 1554 1555 1555 1555 1555 1555 1555 1555 1555 1555 1555 1556 1556 1556 1556 1556 1556 1556
1530 1535 1539 1544 1551 1563 1554 1560 1560 1550 1544 1541 1540 1540 1541 1542 1544 1545 1547 1548 1549 1551 1552 1552 1553 1553 1554 1554 1554 1554 1554 1554 1554 1554 1554 1554 1555 1555 1555 1555 1555 1555 1555 1555 1556 1556 1556 1556 1556
1534 1549 1564 1566 1570 1567 1551 1555 1554 1539 1536 1536 1536 1538 1539 1541 1543 1544 1546 1547 1548 1549 1550 1551 1552 1552 1553 1553 1553 1553 1554 1553 1553 1553 1553 1554 1554 1554 1554 1554 1555 1555 1555 1555 1555 1555 1555 1556 1556
1536 1546 1564 1573 1573 1566 1553 1556 1547 1535 1533 1534 1535 1536 1538 1540 1542 1543 1545 1546 1547 1548 1549 1550 1551 1551 1551 1552 1552 1553 1553 1553 1553 1553 1553 1553 1553 1553 1553 1554 1554 1554 1554 1554 1554 1555 1555 1555 1555
1536 1543 1543 1557 1560 1566 1561 1551 1542 1536 1535 1535 1536 1537 1538 1539 1541 1542 1544 1545 1546 1548 1548 1549 1549 1550 1550 1551 1551 1551 1552 1552 1552 1552 1552 1552 1552 1552 1553 1553 1553 1553 1554 1554 1554 1554 1554 1554 1554
1530 1536 1548 1556 1567 1572 1564 1558 1553 1542 1538 1536 1536 1536 1537 1539 1540 1542 1543 1544 1545 1546 1547 1548 1548 1549 1549 1550 1550 1550 1550 1550 1550 1551 1551 1551 1551 1551 1551 1552 1552 1552 1553 1553 1553 1553 1553 1554 1554
1534 1537 1543 1554 1558 1569 1572 1562 1536 1535 1533 1534 1534 1535 1536 1537 1539 1540 1542 1543 1544 1545 1546 1546 1547 1547 1547 1548 1548 1548 1548 1549 1549 1549 1549 1549 1550 1550 1550 1551 1551 1551 1552 1552 1552 1553 1553 1553 1553
1530 1534 1541 1555 1557 1559 1564 1557 1528 1529 1529 1530 1532 1534 1535 1536 1538 1539 1540 1542 1543 1543 1544 1545 1545 1546 1546 1546 1546 1546 1547 1547 1547 1547 1547 1548 1548 1548 1549 1549 1550 1550 1551 1551 1551 1552 1552 1552 1552